[[{"header":{"parameterUnit":"m.s-1","parameterCategory":1,"la1":30.2991,"la2":30.254,"lo1":-89.0895,"lo2":-89.0444,"dy":0.0017,"dx":0.0017,"nx":28,"ny":28,"refTime":"2025-11-11T09:00:00:Z","depth":0,"parameterNumber":2,"parameterNumberName":"U-component_of_WINDS"},"data":[0,0,0,0,0,0,0,0,0,0,0,0,0,0,0,0,0,0,0,0,0,0,0,0,0,0,0,0,0,0,0,0,0,0,0,0,0,0,0,0,0,0,0,0,0,0,0,0,0,0,0,0,0,0,0,0,0,0,1.4926,1.4928,0,1.5096,1.5098,1.51,1.5166,1.5166,1.5165,1.5165,1.534,1.5345,1.535,0,0,0,0,0,0,0,0,0,0,0,0,0,1.466,1.4664,1.4926,1.4928,1.493,1.5096,1.5098,1.51,1.5166,1.5166,1.5165,1.5165,1.5338,1.5344,1.535,0,0,0,0,0,0,0,0,0,0,0,0,0,1.4797,1.4666,1.4926,1.4983,1.499,1.5095,1.5098,1.5101,1.5166,1.5166,1.5165,1.5164,1.5336,1.5343,1.5351,1.5412,0,0,1.5374,1.5378,0,0,0,0,0,0,0,0,1.4789,1.4807,1.4973,1.498,1.4987,1.5109,1.5068,1.5205,1.5167,1.51,1.5165,1.5164,1.5264,1.5277,1.5311,1.542,1.5428,1.5375,1.538,1.5383,1.5385,0,0,0,0,0,0,0,1.478,1.48,1.4993,1.4975,1.4984,1.5001,1.502,1.5095,1.5183,1.5105,1.5111,1.513,1.5268,1.5303,1.5315,1.543,1.5375,1.5381,1.5386,1.5389,1.5598,1.5599,0,0,0,0,0,0,1.4761,1.4792,1.4988,1.4999,1.4885,1.5006,1.5027,1.5071,1.5183,1.5199,1.513,1.5132,1.529,1.5306,1.5322,1.54,1.5383,1.539,1.5394,1.5597,1.5599,1.56,0,0,0,0,0,0,1.4755,1.4777,1.4981,1.4897,1.4924,1.5011,1.506,1.5075,1.511,1.5202,1.5218,1.515,1.529,1.5311,1.5389,1.5407,1.5393,1.54,1.5596,1.5598,1.5599,1.5558,0,0,0,0,0,0,1.4747,1.4775,1.4799,1.4897,1.4928,1.5045,1.5061,1.5078,1.5123,1.5127,1.5225,1.524,1.5291,1.5377,1.5396,1.5418,1.5406,1.5595,1.5597,1.5599,1.5558,1.5558,1.5557,0,0,0,0,0,1.4737,1.4781,1.48,1.4823,1.496,1.5046,1.5064,1.5122,1.5124,1.5149,1.5208,1.5237,1.5402,1.5385,1.5407,1.543,1.5594,1.5596,1.5598,1.5558,1.5558,1.5558,0,0,0,0,0,0,1.4683,1.4794,1.4817,1.4893,1.496,1.5057,1.509,1.512,1.5188,1.5189,1.5258,1.528,1.5352,1.5399,1.5378,1.5495,1.55,1.5507,1.5462,1.5462,1.5462,1.5449,1.5413,0,0,0,0,0,1.468,1.474,1.4835,1.4893,1.4925,1.5002,1.5042,1.5081,1.5153,1.5181,1.5246,1.5314,1.5382,1.5425,1.5492,1.5565,1.5587,1.5592,1.5592,1.5592,1.5596,1.5639,1.5642,1.5607,1.5607,1.5607,0,0,1.4674,1.4742,1.4777,1.4884,1.494,1.5002,1.5025,1.5089,1.5136,1.5191,1.5268,1.5318,1.5399,1.5475,1.5512,1.5517,1.5611,1.5594,1.5593,1.5599,1.5641,1.5645,1.5647,1.5608,1.5608,1.5608,0,0,1.4695,1.4753,1.4808,1.4864,1.4948,1.4999,1.5012,1.5105,1.514,1.5219,1.5261,1.5318,1.5433,1.5489,1.5532,1.5575,1.5604,1.5595,1.5593,1.5634,1.5637,1.5639,1.5654,1.5659,1.5599,1.5599,1.5599,0,1.4677,1.4771,1.4832,1.4894,1.494,1.4993,1.5049,1.5101,1.5202,1.5233,1.5237,1.5382,1.5441,1.553,1.5541,1.5574,1.5591,1.5584,1.5631,1.5635,1.5638,1.5653,1.5659,1.5598,1.5598,1.5598,1.5598,0,1.4745,1.481,1.4845,1.4941,1.4991,1.505,1.512,1.5164,1.5198,1.5248,1.5328,1.54,1.5483,1.5507,1.5541,1.5602,1.5602,1.5618,1.5624,1.5639,1.5654,1.566,1.5595,1.5596,1.5596,1.5597,0,0,1.4737,1.4867,1.4878,1.4923,1.502,1.5072,1.5133,1.5213,1.5249,1.5318,1.5371,1.5467,1.5482,1.5531,1.5573,1.5608,1.5637,1.562,1.5623,1.562,1.5707,1.5695,1.57,1.5657,1.5658,1.5659,1.57,0,1.4771,1.4882,1.4939,1.5026,1.5087,1.5138,1.5191,1.5256,1.5305,1.5364,1.5418,1.5484,1.5499,1.5529,1.5567,1.5625,1.5655,1.5623,1.5707,1.5709,1.5685,1.5708,1.5695,1.5731,1.5707,1.5708,1.5709,0,1.4825,1.4893,1.4986,1.5076,1.5104,1.515,1.5229,1.5284,1.5359,1.5392,1.5447,1.5488,1.5555,1.5556,1.5649,1.5625,1.5663,1.5697,1.57,1.571,1.5709,1.5719,1.5744,1.5749,1.5719,1.5718,1.5717,0,1.4809,1.4924,1.4994,1.5031,1.5138,1.517,1.5216,1.529,1.5335,1.5404,1.5434,1.5509,1.555,1.5608,1.5668,1.5663,1.5755,1.5761,1.5784,1.5783,1.5801,1.5799,1.5832,1.5825,1.5825,1.5825,1.5825,0,1.4841,1.4896,1.4989,1.5032,1.5095,1.516,1.5221,1.5271,1.5337,1.5391,1.544,1.5489,1.5566,1.5625,1.5672,1.5742,1.576,1.5789,1.5801,1.5785,1.5781,1.581,1.5809,1.5827,1.5826,1.5826,1.5826,0,1.4834,1.4898,1.4978,1.5073,1.5098,1.514,1.5222,1.5266,1.5317,1.5384,1.5404,1.5484,1.5557,1.5622,1.5719,1.575,1.5821,1.5836,1.5795,1.5802,1.5821,1.5818,1.5874,1.5885,1.587,1.587,1.587,0,1.4849,1.4893,1.4992,1.5032,1.5077,1.514,1.5186,1.5252,1.5297,1.5386,1.542,1.5496,1.556,1.5673,1.574,1.5814,1.5831,1.5846,1.5843,1.5825,1.5832,1.5828,1.5833,1.5845,1.5845,1.5845,1.5845,0,1.4871,1.49,1.4965,1.504,1.5093,1.5156,1.522,1.525,1.5327,1.5377,1.5451,1.5501,1.5599,1.5674,1.5755,1.5803,1.5837,1.5845,1.5854,1.5838,1.5812,1.5826,1.5794,1.5843,1.5843,1.5844,1.5844,1.5844,1.4876,1.4917,1.4993,1.5063,1.5118,1.5177,1.5223,1.5279,1.5342,1.5427,1.5462,1.5538,1.5613,1.5725,1.5773,1.5833,1.584,1.5853,1.5857,1.5859,1.5856,1.5803,1.5848,1.5848,1.5849,1.5849,1.5849,0,1.4899,1.4951,1.5014,1.5103,1.5158,1.5184,1.5257,1.5301,1.5367,1.5433,1.5495,1.5581,1.5654,1.5726,1.5803,1.5838,1.5855,1.5855,1.5854,1.5864,1.5845,1.583,1.584,1.584,1.584,1.584,1.584,1.584,1.4918,1.4989,1.5027,1.5126,1.5178,1.5252,1.5291,1.5345,1.5399,1.5492,1.5553,1.5599,1.5669,1.5751,1.5819,1.5838,1.5864,1.586,1.5884,1.5865,1.5865,1.5865,1.5851,1.5866,1.5866,1.5898,1.5898,1.5898]},{"header":{"parameterUnit":"m.s-1","parameterCategory":1,"la1":30.2991,"la2":30.254,"lo1":-89.0895,"lo2":-89.0444,"dy":0.0017,"dx":0.0017,"nx":28,"ny":28,"refTime":"2025-11-11T09:00:00:Z","depth":0,"parameterNumber":3,"parameterNumberName":"V-component_of_WINDS"},"data":[0,0,0,0,0,0,0,0,0,0,0,0,0,0,0,0,0,0,0,0,0,0,0,0,0,0,0,0,0,0,0,0,0,0,0,0,0,0,0,0,0,0,0,0,0,0,0,0,0,0,0,0,0,0,0,0,0,0,3.3147,3.3146,0,3.31,3.3099,3.3099,3.3064,3.3064,3.3063,3.3063,3.301,3.3009,3.3008,0,0,0,0,0,0,0,0,0,0,0,0,0,3.3202,3.3201,3.3147,3.3146,3.3146,3.31,3.3099,3.3099,3.3064,3.3064,3.3063,3.3063,3.301,3.3009,3.3007,0,0,0,0,0,0,0,0,0,0,0,0,0,3.3169,3.3201,3.3147,3.3123,3.312,3.31,3.3099,3.3098,3.3064,3.3064,3.3063,3.3063,3.3011,3.3009,3.3007,3.3005,0,0,3.3002,3.3001,0,0,0,0,0,0,0,0,3.3171,3.3167,3.3127,3.3125,3.3122,3.3087,3.3099,3.3067,3.3064,3.3085,3.3063,3.3062,3.3036,3.3032,3.3024,3.3003,3.3001,3.3002,3.3001,3.3,3.3,0,0,0,0,0,0,0,3.3173,3.3169,3.3128,3.3127,3.3123,3.3113,3.3108,3.3093,3.3063,3.3083,3.3081,3.3076,3.3034,3.3026,3.3022,3.3,3.3002,3.3,3.2999,3.2999,3.2975,3.2975,0,0,0,0,0,0,3.318,3.3171,3.313,3.3127,3.3146,3.3112,3.3107,3.3099,3.3063,3.3058,3.3076,3.3074,3.3029,3.3024,3.302,3.3016,3.3,3.2998,3.2997,3.2974,3.2975,3.2975,0,0,0,0,0,0,3.3181,3.3176,3.3132,3.3148,3.3142,3.3112,3.3103,3.3098,3.309,3.3058,3.3052,3.3074,3.3028,3.3023,3.301,3.3014,3.2998,3.2996,3.2974,3.2975,3.2975,3.3008,0,0,0,0,0,0,3.3183,3.3177,3.3177,3.3148,3.3141,3.3123,3.3104,3.3097,3.3087,3.3084,3.3054,3.3048,3.3027,3.3013,3.3008,3.3011,3.2995,3.2973,3.2974,3.2975,3.3006,3.3009,3.3012,0,0,0,0,0,3.3185,3.3187,3.3178,3.3173,3.3141,3.3124,3.3119,3.3097,3.3088,3.3087,3.3067,3.3049,3.3014,3.3011,3.3006,3.3009,3.2973,3.2974,3.2975,3.3005,3.3009,3.3012,0,0,0,0,0,0,3.3216,3.3183,3.3172,3.3165,3.3148,3.3118,3.3116,3.3101,3.3085,3.3082,3.3053,3.3047,3.3037,3.3021,3.3019,3.3005,3.2991,3.2991,3.3016,3.3019,3.3022,3.3026,3.2993,0,0,0,0,0,3.3222,3.3212,3.3184,3.318,3.3172,3.3146,3.3138,3.3122,3.3102,3.3094,3.3073,3.3053,3.3037,3.3027,3.3011,3.3003,3.2996,3.3002,3.3005,3.3008,3.3008,3.3003,3.3005,3.2978,3.2978,3.2978,0,0,3.3234,3.3215,3.3211,3.3186,3.3171,3.316,3.314,3.313,3.3121,3.3092,3.3079,3.3062,3.3038,3.3028,3.3022,3.3015,3.3014,3.3009,3.3011,3.301,3.3004,3.3007,3.3009,3.2979,3.2979,3.2979,0,0,3.3251,3.3236,3.3232,3.3218,3.3195,3.3178,3.3177,3.3149,3.3138,3.3125,3.3103,3.3091,3.3065,3.3048,3.3036,3.3048,3.3031,3.3043,3.3058,3.3054,3.3056,3.3057,3.3061,3.3063,3.3043,3.3043,3.3043,0,3.3269,3.3254,3.3231,3.3223,3.3212,3.3187,3.3182,3.3168,3.3141,3.3134,3.3126,3.3093,3.3074,3.306,3.3063,3.3054,3.3051,3.3046,3.3058,3.3059,3.306,3.3064,3.3065,3.3045,3.3045,3.3045,3.3044,0,3.3277,3.3267,3.3266,3.3242,3.3231,3.3225,3.32,3.3191,3.3176,3.3159,3.3146,3.3123,3.3102,3.3097,3.3081,3.308,3.3076,3.3063,3.3049,3.3065,3.3068,3.3069,3.3047,3.3047,3.3046,3.3046,0,0,3.3312,3.3277,3.3277,3.3266,3.3239,3.323,3.3221,3.3203,3.3196,3.3178,3.3169,3.3148,3.3136,3.3122,3.3105,3.31,3.3111,3.3088,3.3087,3.3093,3.3108,3.3118,3.312,3.3099,3.31,3.31,3.311,0,3.3325,3.3311,3.329,3.3282,3.3272,3.3247,3.324,3.3222,3.3205,3.3193,3.3174,3.316,3.3145,3.3137,3.3132,3.3111,3.3113,3.311,3.309,3.309,3.3098,3.3121,3.3132,3.3143,3.3111,3.3111,3.3111,0,3.3339,3.3324,3.3315,3.329,3.3285,3.3279,3.326,3.3249,3.3227,3.3216,3.3201,3.3182,3.3171,3.3158,3.3141,3.3139,3.3129,3.3118,3.3117,3.3115,3.3102,3.3119,3.3146,3.3148,3.3112,3.3112,3.3112,0,3.3366,3.3343,3.3335,3.3326,3.3297,3.3293,3.328,3.3258,3.3248,3.3231,3.3224,3.3205,3.3194,3.3179,3.3155,3.3148,3.314,3.3126,3.3129,3.313,3.3129,3.3129,3.3154,3.3123,3.3123,3.3123,3.3123,0,3.3383,3.3378,3.3347,3.3342,3.3336,3.3312,3.3306,3.329,3.3271,3.3262,3.3239,3.323,3.3199,3.3186,3.3166,3.3155,3.315,3.314,3.3135,3.3142,3.3143,3.3135,3.3134,3.3123,3.3123,3.3123,3.3123,0,3.3412,3.3391,3.338,3.3353,3.3346,3.3343,3.3319,3.3313,3.3295,3.3283,3.3279,3.3251,3.3235,3.3209,3.3185,3.3172,3.3164,3.3155,3.3172,3.3169,3.3174,3.3174,3.3195,3.3196,3.3164,3.3164,3.3164,0,3.3424,3.342,3.3393,3.3387,3.3375,3.3363,3.3354,3.3329,3.3319,3.3295,3.3291,3.3274,3.3258,3.3233,3.3209,3.319,3.3181,3.319,3.3178,3.3185,3.3181,3.3182,3.3181,3.3192,3.3193,3.3193,3.3194,0,3.3448,3.3438,3.3426,3.341,3.34,3.3385,3.337,3.3365,3.3336,3.3326,3.331,3.3299,3.3275,3.3257,3.3235,3.3219,3.3201,3.3198,3.3197,3.3205,3.3215,3.321,3.3179,3.3197,3.3197,3.3197,3.3196,3.3196,3.3469,3.3465,3.3446,3.3433,3.3419,3.3405,3.3398,3.338,3.3367,3.3347,3.3333,3.3317,3.3295,3.3264,3.325,3.3236,3.3229,3.3228,3.3228,3.3229,3.3232,3.3217,3.3232,3.3232,3.3232,3.3232,3.3232,0,3.3493,3.3479,3.3468,3.3448,3.3437,3.3423,3.3405,3.3397,3.3385,3.3366,3.3352,3.3334,3.3316,3.3292,3.3272,3.3266,3.3258,3.3262,3.3262,3.3259,3.324,3.3242,3.3269,3.3269,3.3269,3.3269,3.3269,3.3269,3.3504,3.3496,3.3484,3.3468,3.3454,3.3441,3.3432,3.3418,3.3404,3.3385,3.3371,3.3356,3.3335,3.3314,3.3297,3.329,3.3284,3.3291,3.3281,3.3264,3.326,3.3257,3.3259,3.329,3.329,3.3302,3.3302,3.3302]}]]